Location: Kershaw
(34.5481°N, 80.5823°W)
Time: 04:23:55
(UTC+00:00)

Vanguard 2 Rocket - Pass Details

Date: 04 October 2022
Orbit: 553 x 3312 km, 32.9° (Epoch: 02 December)

Event Time Altitude Azimuth Distance (km) Brightness Sun altitude
Rises 00:42:24 0° 210° (SSW) 7,292 11.8 -21.1°
Reaches altitude 10° 00:48:21 10° 201° (SSW) 6,243 11.2 -22.3°
Maximum altitude 01:04:02 32° 148° (SSE) 4,107 9.8 -25.5°
Enters shadow 01:06:56 30° 131° (SE) 4,011 9.6 -26.1°
